Regional Weather Roundup
Issued by NWS

Home | Current Version | Previous Version | Graphics & Text | Print | Product List | Glossary On
Versions: 1 2 3 4 5 6 7 8 9 10 11 12 13 14 15 16 17 18 19 20 21 22 23 24 25 26 27 28 29 30 31 32 33 34 35 36 37 38 39 40 41 42 43 44 45 46 47 48 49 50
000
ASUS44 KMEG 010610
RWRTN
TENNESSEE HOURLY STATE WEATHER ROUNDUP
NATIONAL WEATHER SERVICE MEMPHIS TN
100 AM CDT MON SEP 01 2014

TNZ002-004-019-021-049-052-054-088>092-010700-
WEST TENNESSEE

CITY           SKY/WX    TMP DP  RH WIND       PRES   REMARKS
MEMPHIS INTL   FAIR      76  73  91 S6        29.99S
NWS MEMPHIS      N/A     76 N/A N/A MISG        N/A
JACKSON        FAIR      75  72  90 S7        30.00S
DYERSBURG      FAIR      73  64  73 CALM      29.99S
UNION CITY     CLEAR     73  73 100 S5        29.98R
PARIS          CLEAR     72  70  94 S6        30.01S
HUNTINGDON     FAIR      73  71  93 S5        30.01R
LEXINGTON      CLEAR     73  72  94 S5        30.02R
SAVANNAH       CLEAR     75  75 100 S5        30.03S
$$

TNZ008-025-027-028-033-062-065-066-010700-
NORTH MIDDLE TENNESSEE

CITY           SKY/WX    TMP DP  RH WIND       PRES   REMARKS
NASHVILLE      FAIR      74  71  91 S3        30.05R
DICKSON        FAIR      72  72 100 S7        30.04R
PORTLAND       FAIR      72  70  94 S5        30.04R
CLARKSVILLE    FAIR      74  71  91 S5        30.02R
LEBANON        FAIR      74  70  87 S6        30.04R
SMYRNA         FAIR      72  71  96 S5        30.06R
MURFREESBORO   FAIR      74  70  87 S3        30.05R
COOKEVILLE     CLEAR     70  68  94 CALM      30.08R
LIVINGSTON     FAIR      70  68  93 SW8       30.09S
GALLATIN       FAIR      73  73 100 CALM      30.06R
CROSSVILLE     FAIR      70  65  84 CALM      30.14R
$$

TNZ061-075-076-078-094-096-097-010700-
SOUTH MIDDLE TENNESSEE

CITY           SKY/WX    TMP DP  RH WIND       PRES   REMARKS
LEWISBURG      FAIR      73  70  91 S3        30.05S
FAYETTEVILLE   CLEAR     72  70  94 S3        30.08S
TULLAHOMA      CLEAR     70  68  94 S3        30.10R
WINCHESTER     PTCLDY    72  70  94 CALM      30.09S
MCMINNVILLE    CLEAR     72  72 100 SW3       30.09R
COLUMBIA         N/A     73  73 100 S5        30.04R
SHELBYVILLE    CLEAR     73  72  94 S6        30.08R
$$

TNZ017-018-042-046-047-010700-
NORTHEAST TENNESSEE

CITY           SKY/WX    TMP DP  RH WIND       PRES   REMARKS
TRI CITIES     MOCLDY    72  69  90 CALM      30.14R
ELIZABETHTON   CLEAR     66  66 100 N3        30.14S
$$

TNZ012-013-036-069-073-074-010700-
CENTRAL EAST TENNESSEE

CITY           SKY/WX    TMP DP  RH WIND       PRES   REMARKS
KNOXVILLE      MOCLDY    71  69  93 CALM      30.09R
OAK RIDGE      FAIR      71  69  93 CALM      30.11S
GATLINBURG     CLEAR     70  68  94 CALM      30.10R
MORRISTOWN     CLEAR     68  68 100 CALM      30.13R
$$

TNZ083-085-099-010700-
SOUTHEAST TENNESSEE

CITY           SKY/WX    TMP DP  RH WIND       PRES   REMARKS
CHATTANOOGA    FAIR      74  71  91 CALM      30.10R
$$

SKY/WX REPORTED AS FAIR MEANS FEW OR NO CLOUDS BELOW
12 THOUSAND FEET.



USA.gov is the U.S. government's official web portal to all federal, state and local government web resources and services.